EN

Hourly Weather Abu Road

Today, 3 December, Thursday

Time Temperature Precipitation Wind Pressure Humidity
00:00 +22°C° 0 mm 1 mps 737 mmHg 28%
01:00 +22°C° 0 mm 1 mps 737 mmHg 29%
02:00 +22°C° 0 mm 1 mps 737 mmHg 30%
03:00 +21°C° 0 mm 1 mps 736 mmHg 31%
04:00 +21°C° 0 mm 1 mps 736 mmHg 31%
05:00 +21°C° 0 mm 1 mps 736 mmHg 32%
06:00 +22°C° 0 mm 1 mps 737 mmHg 32%
07:00 +23°C° 0 mm 1 mps 738 mmHg 31%
08:00 +25°C° 0 mm 1 mps 738 mmHg 30%
09:00 +27°C° 0 mm 1 mps 738 mmHg 26%
10:00 +28°C° 0 mm 0 mps 738 mmHg 22%
11:00 +30°C° 0 mm 0 mps 739 mmHg 18%
12:00 +31°C° 0 mm 0 mps 738 mmHg 18%
13:00 +33°C° 0 mm 1 mps 737 mmHg 17%
14:00 +34°C° 0 mm 1 mps 736 mmHg 16%
15:00 +32°C° 0 mm 1 mps 736 mmHg 19%
16:00 +31°C° 0 mm 1 mps 736 mmHg 22%
17:00 +29°C° 0 mm 1 mps 736 mmHg 24%
18:00 +28°C° 0 mm 1 mps 736 mmHg 26%
19:00 +26°C° 0 mm 1 mps 736 mmHg 27%
20:00 +24°C° 0 mm 1 mps 737 mmHg 29%
21:00 +24°C° 0 mm 1 mps 736 mmHg 29%
22:00 +23°C° 0 mm 1 mps 736 mmHg 30%
23:00 +23°C° 0 mm 1 mps 736 mmHg 30%

Tomorrow, 4 December, Friday

Time Temperature Precipitation Wind Pressure Humidity
00:00 +22°C° 0 mm 1 mps 736 mmHg 31%
01:00 +22°C° 0 mm 1 mps 735 mmHg 31%
02:00 +22°C° 0 mm 1 mps 735 mmHg 31%
03:00 +21°C° 0 mm 1 mps 735 mmHg 31%
04:00 +21°C° 0 mm 1 mps 735 mmHg 31%
05:00 +21°C° 0 mm 1 mps 735 mmHg 31%
06:00 +22°C° 0 mm 1 mps 736 mmHg 30%
07:00 +24°C° 0 mm 1 mps 736 mmHg 30%
08:00 +25°C° 0 mm 1 mps 737 mmHg 29%
09:00 +27°C° 0 mm 1 mps 737 mmHg 26%
10:00 +30°C° 0 mm 1 mps 737 mmHg 23%
11:00 +32°C° 0 mm 1 mps 737 mmHg 19%
12:00 +33°C° 0 mm 1 mps 736 mmHg 18%
13:00 +34°C° 0 mm 2 mps 736 mmHg 17%
14:00 +35°C° 0 mm 2 mps 735 mmHg 17%
15:00 +32°C° 0 mm 2 mps 735 mmHg 19%
16:00 +30°C° 0 mm 2 mps 734 mmHg 22%
17:00 +29°C° 0 mm 2 mps 734 mmHg 25%
18:00 +27°C° 0 mm 1 mps 735 mmHg 27%
19:00 +26°C° 0 mm 1 mps 735 mmHg 29%
20:00 +22°C° 0 mm 0 mps 735 mmHg 30%
21:00 +21°C° 0 mm 0 mps 735 mmHg 31%
22:00 +21°C° 0 mm 0 mps 735 mmHg 32%
23:00 +20°C° 0 mm 0 mps 735 mmHg 33%

Day after tomorrow, 5 December, Saturday

Time Temperature Precipitation Wind Pressure Humidity
00:00 +22°C° 0 mm 1 mps 735 mmHg 33%
01:00 +22°C° 0 mm 1 mps 735 mmHg 34%
02:00 +22°C° 0 mm 1 mps 735 mmHg 34%
03:00 +21°C° 0 mm 1 mps 735 mmHg 34%
04:00 +21°C° 0 mm 1 mps 735 mmHg 35%
05:00 +21°C° 0 mm 1 mps 734 mmHg 35%
06:00 +22°C° 0 mm 1 mps 735 mmHg 34%
07:00 +24°C° 0 mm 1 mps 736 mmHg 34%
08:00 +23°C° 0 mm 0 mps 737 mmHg 33%
09:00 +27°C° 0 mm 1 mps 737 mmHg 29%
10:00 +29°C° 0 mm 1 mps 737 mmHg 25%
11:00 +31°C° 0 mm 2 mps 737 mmHg 21%
12:00 +32°C° 0 mm 2 mps 736 mmHg 20%
13:00 +32°C° 0 mm 2 mps 736 mmHg 19%
14:00 +34°C° 0 mm 2 mps 735 mmHg 19%
15:00 +31°C° 0 mm 2 mps 735 mmHg 22%
16:00 +30°C° 0 mm 2 mps 735 mmHg 25%
17:00 +28°C° 0 mm 1 mps 735 mmHg 28%
18:00 +27°C° 0 mm 1 mps 735 mmHg 31%
19:00 +25°C° 0 mm 1 mps 736 mmHg 34%
20:00 +24°C° 0 mm 1 mps 736 mmHg 36%
21:00 +23°C° 0 mm 1 mps 736 mmHg 37%
22:00 +23°C° 0 mm 1 mps 736 mmHg 39%
23:00 +22°C° 0 mm 1 mps 736 mmHg 40%

6 December, Sunday

Time Temperature Precipitation Wind Pressure Humidity
00:00 +22°C° 0 mm 1 mps 736 mmHg 41%
01:00 +22°C° 0 mm 1 mps 736 mmHg 41%
02:00 +22°C° 0 mm 1 mps 736 mmHg 41%
03:00 +22°C° 0 mm 1 mps 736 mmHg 42%
04:00 +21°C° 0 mm 1 mps 736 mmHg 42%
05:00 +21°C° 0 mm 1 mps 736 mmHg 42%
06:00 +22°C° 0 mm 1 mps 737 mmHg 40%
07:00 +24°C° 0 mm 1 mps 738 mmHg 38%
08:00 +25°C° 0 mm 1 mps 739 mmHg 36%
09:00 +27°C° 0 mm 1 mps 739 mmHg 31%
10:00 +30°C° 0 mm 1 mps 739 mmHg 26%
11:00 +32°C° 0 mm 1 mps 739 mmHg 21%
12:00 +32°C° 0 mm 1 mps 738 mmHg 20%
13:00 +33°C° 0 mm 1 mps 738 mmHg 19%
14:00 +34°C° 0 mm 1 mps 737 mmHg 18%
15:00 +32°C° 0 mm 1 mps 737 mmHg 21%
16:00 +31°C° 0 mm 1 mps 737 mmHg 24%
17:00 +29°C° 0 mm 1 mps 737 mmHg 27%
18:00 +28°C° 0 mm 1 mps 737 mmHg 28%
19:00 +26°C° 0 mm 1 mps 737 mmHg 30%
20:00 +24°C° 0 mm 1 mps 738 mmHg 31%
21:00 +24°C° 0 mm 1 mps 738 mmHg 32%
22:00 +24°C° 0 mm 1 mps 738 mmHg 32%
23:00 +23°C° 0 mm 1 mps 738 mmHg 32%

7 December, Monday

Time Temperature Precipitation Wind Pressure Humidity
00:00 +23°C° 0 mm 1 mps 738 mmHg 32%
01:00 +23°C° 0 mm 1 mps 738 mmHg 32%
02:00 +23°C° 0 mm 2 mps 738 mmHg 32%
03:00 +21°C° 0 mm 2 mps 738 mmHg 32%
04:00 +21°C° 0 mm 2 mps 738 mmHg 32%
05:00 +21°C° 0 mm 2 mps 738 mmHg 32%
06:00 +23°C° 0 mm 1 mps 738 mmHg 32%
07:00 +24°C° 0 mm 1 mps 739 mmHg 31%
08:00 +25°C° 0 mm 1 mps 739 mmHg 31%
09:00 +28°C° 0 mm 1 mps 740 mmHg 27%
10:00 +30°C° 0 mm 1 mps 740 mmHg 23%
11:00 +33°C° 0 mm 1 mps 740 mmHg 20%
12:00 +34°C° 0 mm 2 mps 739 mmHg 19%
13:00 +35°C° 0 mm 2 mps 739 mmHg 18%
14:00 +35°C° 0 mm 2 mps 738 mmHg 17%
15:00 +34°C° 0 mm 2 mps 738 mmHg 20%
16:00 +31°C° 0 mm 2 mps 738 mmHg 23%
17:00 +30°C° 0 mm 1 mps 738 mmHg 25%
18:00 +28°C° 0 mm 1 mps 738 mmHg 27%
19:00 +26°C° 0 mm 1 mps 738 mmHg 29%
20:00 +25°C° 0 mm 1 mps 738 mmHg 30%
21:00 +24°C° 0 mm 1 mps 739 mmHg 31%
22:00 +24°C° 0 mm 1 mps 739 mmHg 32%
23:00 +23°C° 0 mm 1 mps 739 mmHg 32%

8 December, Tuesday

Time Temperature Precipitation Wind Pressure Humidity
00:00 +23°C° 0 mm 1 mps 738 mmHg 33%
01:00 +23°C° 0 mm 1 mps 738 mmHg 33%
02:00 +22°C° 0 mm 1 mps 738 mmHg 33%
03:00 +22°C° 0 mm 1 mps 738 mmHg 33%
04:00 +22°C° 0 mm 1 mps 738 mmHg 33%
05:00 +22°C° 0 mm 1 mps 738 mmHg 33%
06:00 +23°C° 0 mm 1 mps 738 mmHg 33%
07:00 +24°C° 0 mm 1 mps 739 mmHg 33%
08:00 +25°C° 0 mm 1 mps 739 mmHg 32%
09:00 +28°C° 0 mm 1 mps 739 mmHg 28%
10:00 +30°C° 0 mm 1 mps 740 mmHg 24%
11:00 +33°C° 0 mm 1 mps 740 mmHg 20%
12:00 +33°C° 0 mm 1 mps 739 mmHg 19%
13:00 +35°C° 0 mm 2 mps 738 mmHg 18%
14:00 +35°C° 0 mm 3 mps 738 mmHg 17%
15:00 +34°C° 0 mm 2 mps 737 mmHg 19%
16:00 +31°C° 0 mm 2 mps 737 mmHg 22%
17:00 +29°C° 0 mm 2 mps 737 mmHg 25%
18:00 +28°C° 0 mm 1 mps 738 mmHg 26%
19:00 +26°C° 0 mm 1 mps 738 mmHg 28%
20:00 +25°C° 0 mm 1 mps 738 mmHg 30%
21:00 +24°C° 0 mm 1 mps 738 mmHg 31%
22:00 +23°C° 0 mm 1 mps 738 mmHg 32%
23:00 +23°C° 0 mm 1 mps 738 mmHg 33%
Show more